TimeCST,TemperatureF,Dew PointF,Humidity,Sea Level PressureIn,VisibilityMPH,Wind Direction,Wind SpeedMPH,Gust SpeedMPH,PrecipitationIn,Events,Conditions,WindDirDegrees,DateUTC
12:53 AM,25.0,12.0,58,30.36,10.0,North,8.1,-,N/A,,Clear,10,2013-01-21 06:53:00
1:53 AM,24.1,12.0,60,30.37,10.0,NNE,8.1,-,N/A,,Clear,30,2013-01-21 07:53:00
2:53 AM,24.1,10.9,57,30.39,10.0,NNE,9.2,-,N/A,,Clear,20,2013-01-21 08:53:00
3:53 AM,23.0,12.0,63,30.40,10.0,NE,5.8,-,N/A,,Clear,40,2013-01-21 09:53:00
4:53 AM,21.9,10.9,63,30.40,10.0,North,6.9,-,N/A,,Clear,10,2013-01-21 10:53:00
5:53 AM,21.0,10.9,65,30.41,10.0,NNE,5.8,-,N/A,,Clear,30,2013-01-21 11:53:00
6:53 AM,19.0,10.9,71,30.42,10.0,NNE,5.8,-,N/A,,Clear,30,2013-01-21 12:53:00
7:53 AM,19.0,10.9,71,30.43,10.0,NNE,5.8,-,N/A,,Clear,30,2013-01-21 13:53:00
8:53 AM,23.0,10.9,60,30.45,10.0,ENE,5.8,-,N/A,,Clear,60,2013-01-21 14:53:00
9:53 AM,26.1,10.0,51,30.44,10.0,ENE,5.8,-,N/A,,Clear,70,2013-01-21 15:53:00
10:53 AM,28.9,10.9,47,30.45,10.0,NE,6.9,-,N/A,,Clear,40,2013-01-21 16:53:00
11:53 AM,30.9,10.9,43,30.43,10.0,NE,10.4,-,N/A,,Clear,40,2013-01-21 17:53:00
12:53 PM,32.0,12.0,44,30.40,10.0,NNE,8.1,-,N/A,,Clear,20,2013-01-21 18:53:00
1:53 PM,33.1,12.9,43,30.39,10.0,NNE,9.2,-,N/A,,Clear,20,2013-01-21 19:53:00
2:53 PM,32.0,12.9,45,30.39,10.0,NNE,8.1,-,N/A,,Clear,20,2013-01-21 20:53:00
3:53 PM,33.1,14.0,46,30.38,10.0,North,6.9,-,N/A,,Clear,10,2013-01-21 21:53:00
4:53 PM,30.9,14.0,50,30.37,10.0,North,6.9,-,N/A,,Clear,350,2013-01-21 22:53:00
5:53 PM,28.0,14.0,56,30.36,10.0,NNE,5.8,-,N/A,,Clear,20,2013-01-21 23:53:00
6:53 PM,25.0,12.9,60,30.37,10.0,NE,8.1,-,N/A,,Clear,50,2013-01-22 00:53:00
7:53 PM,23.0,12.0,63,30.39,10.0,NE,6.9,-,N/A,,Clear,40,2013-01-22 01:53:00
8:53 PM,21.9,12.0,66,30.39,10.0,ENE,4.6,-,N/A,,Clear,60,2013-01-22 02:53:00
9:53 PM,21.0,10.9,65,30.38,10.0,ENE,4.6,-,N/A,,Clear,70,2013-01-22 03:53:00
10:53 PM,21.0,10.9,65,30.39,10.0,NE,4.6,-,N/A,,Partly Cloudy,40,2013-01-22 04:53:00
11:53 PM,19.9,12.0,71,30.38,10.0,East,3.5,-,N/A,,Clear,80,2013-01-22 05:53:00